{"data":{"norad_id":65473,"intl_designator":"2025-195R","name":"STARLINK-34762","alt_names":[],"object_type":"PAYLOAD","status":"ACTIVE","operator":null,"country":"US","launch_date":"2025-09-03","launch_site_code":"AFETR","launch_vehicle":null,"mission":null,"orbit_class":"UNKNOWN","rcs_meters":null,"size_class":null,"mass_kg":null,"dimensions":null,"purposes":["comms"],"wikipedia_slug":null,"has_3d_model":false,"image_url":null,"decayed_at":null,"tle_current":{"epoch":"2026-05-24T19:30:44.750880Z","epoch_age_seconds":88036,"freshness":"FRESH","line1":"1 65473U 25195R   26144.81301795  .00048124  00000+0  14237-2 0  9995","line2":"2 65473  53.1586 264.2332 0001144  88.3673 271.7460 15.34458945 41631","mean_motion":15.34458945,"eccentricity":0.0001144,"inclination_deg":53.1586,"raan_deg":264.2332,"arg_perigee_deg":88.3673,"mean_anomaly_deg":271.746,"bstar":0.0014237,"rev_number":4163,"period_min":93.844152995569,"perigee_km":461.74547677182,"apogee_km":463.310620935,"semimajor_km":6840.6650488534,"source":"CELESTRAK","updated_at":"2026-05-25T13:38:20.815114Z"}}}